OE8NDR-11 Weather Reports


Display with metric or nautical units.
time (UTC)temp
F
wind
direction
speed
MPH
gust
MPH
rain 1hr
in
rain 24hr
in
rain mn
in
humidity
%
barometer
mb
20260903231253 83 283 3.0 5.0 0.00 0.00 0.00 35 1015.4
20260903230753 83 73 5.0 10.0 0.00 0.00 0.00 34 1015.4
20260903230253 83 74 6.0 12.0 0.00 0.00 0.00 34 1015.5
20260903225753 84 78 6.0 8.0 0.00 0.00 0.00 34 1015.6
20260903225253 84 74 7.0 11.0 0.00 0.00 0.00 33 1015.5
20260903224753 84 80 6.0 9.0 0.00 0.00 0.00 33 1015.6
20260903224253 84 92 5.0 8.0 0.00 0.00 0.00 33 1015.4
20260903223753 85 80 5.0 9.0 0.00 0.00 0.00 32 1015.3
20260903223253 85 76 6.0 9.0 0.00 0.00 0.00 32 1015.3
20260903222753 85 67 6.0 13.0 0.00 0.00 0.00 31 1015.3
20260903222253 85 101 5.0 10.0 0.00 0.00 0.00 31 1015.3
20260903221753 85 105 4.0 7.0 0.00 0.00 0.00 32 1015.3
20260903221253 85 96 4.0 9.0 0.00 0.00 0.00 31 1015.3
20260903220753 85 105 4.0 7.0 0.00 0.00 0.00 32 1015.3
20260903220253 85 78 6.0 10.0 0.00 0.00 0.00 32 1015.3
20260903215753 85 88 6.0 15.0 0.00 0.00 0.00 32 1015.2
20260903215253 85 49 3.0 14.0 0.00 0.00 0.00 32 1015.1
20260903214757 85 109 2.0 6.0 0.00 0.00 0.00 32 1015.2
20260903214253 85 46 2.0 7.0 0.00 0.00 0.00 32 1015.3
20260903213753 86 355 3.0 4.0 0.00 0.00 0.00 31 1015.2
20260903213253 86 42 5.0 10.0 0.00 0.00 0.00 31 1015.1
20260903212753 87 65 6.0 15.0 0.00 0.00 0.00 30 1015.0
20260903212253 87 49 7.0 13.0 0.00 0.00 0.00 30 1015.0
20260903211753 87 57 7.0 18.0 0.00 0.00 0.00 30 1014.8
20260903211253 87 59 8.0 16.0 0.00 0.00 0.00 30 1014.9
20260903210753 87 71 10.0 20.0 0.00 0.00 0.00 29 1014.9
20260903210253 88 55 11.0 19.0 0.00 0.00 0.00 29 1014.8
20260903205753 87 65 9.0 20.0 0.00 0.00 0.00 29 1014.8
20260903205253 87 61 8.0 17.0 0.00 0.00 0.00 29 1014.7
20260903204753 87 88 10.0 18.0 0.00 0.00 0.00 29 1014.8
20260903204253 87 355 8.0 21.0 0.00 0.00 0.00 29 1014.7
20260903203753 86 71 5.0 12.0 0.00 0.00 0.00 31 1014.7
20260903203253 86 313 4.0 10.0 0.00 0.00 0.00 34 1014.7
20260903202753 86 208 3.0 6.0 0.00 0.00 0.00 36 1014.8
20260903202253 86 26 2.0 7.0 0.00 0.00 0.00 33 1014.7
20260903201753 85 331 1.0 4.0 0.00 0.00 0.00 34 1014.7
20260903201253 85 44 2.0 3.0 0.00 0.00 0.00 36 1014.7
20260903200753 84 136 2.0 4.0 0.00 0.00 0.00 38 1014.8
20260903200253 84 130 2.0 4.0 0.00 0.00 0.00 39 1014.7
20260903195753 84 38 2.0 7.0 0.00 0.00 0.00 40 1014.7
20260903195253 84 87 1.0 4.0 0.00 0.00 0.00 43 1014.8
20260903194753 84 32 1.0 4.0 0.00 0.00 0.00 41 1014.8
20260903194253 83 88 1.0 2.0 0.00 0.00 0.00 42 1014.7
20260903193753 83 111 1.0 3.0 0.00 0.00 0.00 45 1014.7
20260903193253 82 167 2.0 0.0 0.00 0.00 0.00 46 1014.6
20260903192753 82 167 3.0 9.0 0.00 0.00 0.00 53 1014.6
20260903192253 82 148 1.0 8.0 0.00 0.00 0.00 51 1014.7
20260903191753 82 96 1.0 1.0 0.00 0.00 0.00 51 1014.4
20260903191253 83 96 1.0 3.0 0.00 0.00 0.00 54 1014.4
20260903190753 83 45 1.0 3.0 0.00 0.00 0.00 47 1014.2
20260903190253 83 47 2.0 3.0 0.00 0.00 0.00 48 1014.2
20260903185753 83 47 2.0 3.0 0.00 0.00 0.00 49 1014.2
20260903185253 83 79 1.0 3.0 0.00 0.00 0.00 49 1014.1
20260903184753 82 81 1.0 3.0 0.00 0.00 0.00 52 1014.1
20260903184253 83 67 1.0 3.0 0.00 0.00 0.00 55 1014.0
20260903183753 82 22 1.0 3.0 0.00 0.00 0.00 54 1013.9
20260903183253 82 102 1.0 3.0 0.00 0.00 0.00 58 1013.9
20260903182753 83 102 2.0 4.0 0.00 0.00 0.00 59 1013.9
20260903182253 83 296 1.0 2.0 0.00 0.00 0.00 57 1013.8
20260903181753 83 296 1.0 2.0 0.00 0.00 0.00 57 1013.8
20260903181253 83 296 2.0 3.0 0.00 0.00 0.00 58 1013.8
20260903180754 83 302 2.0 4.0 0.00 0.00 0.00 56 1013.7
20260903180253 83 302 3.0 3.0 0.00 0.00 0.00 54 1013.6
20260903175753 84 305 3.0 5.0 0.00 0.00 0.00 50 1013.5
20260903175253 84 313 3.0 5.0 0.00 0.00 0.00 49 1013.5
20260903174753 84 312 3.0 6.0 0.00 0.00 0.00 48 1013.4
20260903174253 84 323 4.0 5.0 0.00 0.00 0.00 48 1013.4
20260903173753 84 302 5.0 7.0 0.00 0.00 0.00 51 1013.4
20260903173253 84 302 4.0 7.0 0.00 0.00 0.00 54 1013.3
20260903172753 85 279 4.0 7.0 0.00 0.00 0.00 52 1013.1
20260903172253 85 271 3.0 7.0 0.00 0.00 0.00 52 1013.0
20260903171753 86 255 2.0 4.0 0.00 0.00 0.00 51 1012.9
20260903171253 87 242 2.0 5.0 0.00 0.00 0.00 46 1012.8
20260903170753 88 27 2.0 2.0 0.00 0.00 0.00 37 1012.8
20260903170253 89 29 2.0 3.0 0.00 0.00 0.00 35 1012.8
20260903165753 89 38 3.0 4.0 0.00 0.00 0.00 34 1012.7
20260903165253 89 40 3.0 5.0 0.00 0.00 0.00 33 1012.6
20260903163856 90 17 4.0 8.0 0.00 0.00 0.00 33 1012.5
20260903163356 90 0 4.0 8.0 0.00 0.00 0.00 33 1012.6
20260903162856 91 34 4.0 7.0 0.00 0.00 0.00 33 1012.5
20260903162356 91 22 4.0 6.0 0.00 0.00 0.00 33 1012.4
20260903161856 91 18 4.0 7.0 0.00 0.00 0.00 32 1012.5
20260903161356 92 23 5.0 8.0 0.00 0.00 0.00 32 1012.4
20260903160856 92 34 4.0 8.0 0.00 0.00 0.00 32 1012.5
20260903160356 92 23 5.0 9.0 0.00 0.00 0.00 32 1012.4
20260903155856 92 22 6.0 11.0 0.00 0.00 0.00 31 1012.5
20260903155356 93 31 6.0 13.0 0.00 0.00 0.00 31 1012.3
20260903154856 93 19 6.0 10.0 0.00 0.00 0.00 31 1012.3
20260903154356 93 17 5.0 12.0 0.00 0.00 0.00 31 1012.2
20260903153856 93 343 5.0 10.0 0.00 0.00 0.00 31 1012.2
20260903153356 94 345 6.0 10.0 0.00 0.00 0.00 29 1012.1
20260903152856 94 49 4.0 10.0 0.00 0.00 0.00 29 1012.1
20260903152356 94 32 5.0 9.0 0.00 0.00 0.00 30 1012.1
20260903151856 94 36 8.0 10.0 0.00 0.00 0.00 28 1012.1
20260903151356 94 58 8.0 12.0 0.00 0.00 0.00 28 1012.2
20260903150856 94 47 8.0 12.0 0.00 0.00 0.00 28 1012.1
20260903150356 94 37 8.0 15.0 0.00 0.00 0.00 27 1012.1
20260903145856 94 46 7.0 13.0 0.00 0.00 0.00 28 1012.1
20260903145356 94 28 7.0 14.0 0.00 0.00 0.00 28 1012.0
20260903144856 94 43 9.0 14.0 0.00 0.00 0.00 30 1012.1
20260903144356 94 355 8.0 17.0 0.00 0.00 0.00 29 1012.1
20260903143856 94 49 7.0 13.0 0.00 0.00 0.00 30 1012.0
20260903143356 94 17 7.0 12.0 0.00 0.00 0.00 30 1012.1
20260903142856 94 5 8.0 16.0 0.00 0.00 0.00 29 1012.1
20260903142356 95 46 7.0 15.0 0.00 0.00 0.00 29 1012.1
20260903141856 95 55 6.0 11.0 0.00 0.00 0.00 30 1012.0
20260903141356 95 39 6.0 11.0 0.00 0.00 0.00 30 1012.1
20260903140856 94 42 6.0 9.0 0.00 0.00 0.00 28 1012.0
20260903140356 94 10 6.0 12.0 0.00 0.00 0.00 29 1012.1
20260903135856 94 57 6.0 11.0 0.00 0.00 0.00 29 1012.0
20260903135356 94 5 7.0 14.0 0.00 0.00 0.00 28 1012.1
20260903134856 94 10 6.0 14.0 0.00 0.00 0.00 31 1012.1
20260903134356 94 16 5.0 10.0 0.00 0.00 0.00 32 1012.1
20260903133856 94 25 6.0 10.0 0.00 0.00 0.00 30 1012.2
20260903133356 94 355 6.0 13.0 0.00 0.00 0.00 30 1012.2
20260903132856 94 47 7.0 10.0 0.00 0.00 0.00 32 1012.3
20260903132356 94 355 7.0 15.0 0.00 0.00 0.00 30 1012.3
20260903131856 94 355 7.0 13.0 0.00 0.00 0.00 31 1012.4
20260903131356 94 340 8.0 12.0 0.00 0.00 0.00 31 1012.4
20260903130856 94 34 7.0 14.0 0.00 0.00 0.00 31 1012.4
20260903130356 94 24 5.0 12.0 0.00 0.00 0.00 32 1012.5
20260903125856 94 15 6.0 10.0 0.00 0.00 0.00 32 1012.4
20260903125356 93 348 8.0 13.0 0.00 0.00 0.00 33 1012.7
20260903124856 93 60 8.0 14.0 0.00 0.00 0.00 31 1012.6
20260903124356 93 34 7.0 14.0 0.00 0.00 0.00 31 1012.7
20260903123856 93 22 8.0 16.0 0.00 0.00 0.00 32 1012.8
20260903123356 93 23 9.0 17.0 0.00 0.00 0.00 30 1012.7
20260903122856 93 63 7.0 15.0 0.00 0.00 0.00 34 1012.7
20260903122356 93 24 7.0 15.0 0.00 0.00 0.00 31 1012.8
20260903121856 93 0 7.0 12.0 0.00 0.00 0.00 32 1012.8
20260903121356 93 24 8.0 13.0 0.00 0.00 0.00 30 1012.9
20260903120856 93 19 8.0 15.0 0.00 0.00 0.00 32 1012.9
20260903120356 93 43 8.0 16.0 0.00 0.00 0.00 30 1012.9
20260903115856 93 46 7.0 16.0 0.00 0.00 0.00 31 1012.9
20260903115356 93 43 9.0 11.0 0.00 0.00 0.00 31 1013.0
20260903114856 93 42 8.0 16.0 0.00 0.00 0.00 29 1013.1
20260903114356 93 71 7.0 11.0 0.00 0.00 0.00 31 1013.1
20260903113856 93 9 7.0 16.0 0.00 0.00 0.00 32 1013.2
20260903113356 93 46 6.0 16.0 0.00 0.00 0.00 31 1013.3
20260903112856 93 90 8.0 11.0 0.00 0.00 0.00 31 1013.4
20260903112356 93 59 10.0 16.0 0.00 0.00 0.00 31 1013.5
20260903111856 93 53 10.0 17.0 0.00 0.00 0.00 30 1013.5
20260903111356 92 54 10.0 17.0 0.00 0.00 0.00 30 1013.5
20260903110856 92 83 11.0 14.0 0.00 0.00 0.00 32 1013.5
20260903110356 92 63 10.0 17.0 0.00 0.00 0.00 30 1013.5
20260903105856 92 70 10.0 16.0 0.00 0.00 0.00 29 1013.7
20260903105356 92 17 10.0 18.0 0.00 0.00 0.00 30 1013.7
20260903104856 92 58 8.0 14.0 0.00 0.00 0.00 33 1013.7
20260903104356 92 347 8.0 16.0 0.00 0.00 0.00 31 1013.8
20260903103856 92 32 7.0 16.0 0.00 0.00 0.00 33 1013.8
20260903103356 92 12 7.0 13.0 0.00 0.00 0.00 35 1013.9
20260903102856 91 44 9.0 15.0 0.00 0.00 0.00 33 1013.9
20260903102356 91 46 9.0 17.0 0.00 0.00 0.00 32 1014.0
20260903101856 92 69 9.0 15.0 0.00 0.00 0.00 33 1014.0
20260903101356 91 45 11.0 14.0 0.00 0.00 0.00 33 1014.0
20260903100856 91 46 10.0 16.0 0.00 0.00 0.00 31 1014.1
20260903100423 91 58 11.0 18.0 0.00 0.00 0.00 33 1014.1
20260903095856 91 34 11.0 17.0 0.00 0.00 0.00 33 1014.2
20260903095356 91 25 11.0 18.0 0.00 0.00 0.00 32 1014.2
20260903094856 91 44 11.0 18.0 0.00 0.00 0.00 34 1014.2
20260903094357 91 28 9.0 17.0 0.00 0.00 0.00 33 1014.4
20260903093856 90 14 9.0 14.0 0.00 0.00 0.00 34 1014.3
20260903093357 90 63 10.0 15.0 0.00 0.00 0.00 32 1014.4
20260903092856 90 34 9.0 19.0 0.00 0.00 0.00 33 1014.4
20260903092357 90 58 7.0 13.0 0.00 0.00 0.00 35 1014.5
20260903091857 89 43 7.0 18.0 0.00 0.00 0.00 33 1014.5
20260903091356 89 21 10.0 12.0 0.00 0.00 0.00 35 1014.6
20260903090856 89 32 9.0 18.0 0.00 0.00 0.00 32 1014.7
20260903090357 89 48 8.0 14.0 0.00 0.00 0.00 34 1014.7
20260903085857 89 34 10.0 15.0 0.00 0.00 0.00 34 1014.8
20260903085357 89 63 9.0 15.0 0.00 0.00 0.00 33 1014.8
20260903084857 89 64 9.0 15.0 0.00 0.00 0.00 34 1014.8
20260903084357 88 63 9.0 15.0 0.00 0.00 0.00 34 1014.8
20260903083857 88 53 9.0 13.0 0.00 0.00 0.00 35 1014.8
20260903083357 88 73 9.0 15.0 0.00 0.00 0.00 34 1014.9
20260903082857 88 67 7.0 12.0 0.00 0.00 0.00 36 1014.9
20260903082357 88 74 6.0 12.0 0.00 0.00 0.00 37 1014.9
20260903081857 88 54 6.0 10.0 0.00 0.00 0.00 36 1014.9
20260903081357 88 81 8.0 10.0 0.00 0.00 0.00 36 1014.9
20260903080857 88 88 8.0 14.0 0.00 0.00 0.00 37 1015.0
20260903080357 88 37 5.0 13.0 0.00 0.00 0.00 37 1015.0
20260903075857 87 68 4.0 9.0 0.00 0.00 0.00 38 1015.1
20260903074258 86 88 6.0 10.0 0.00 0.00 0.00 37 1015.1
20260903073758 86 88 4.0 9.0 0.00 0.00 0.00 40 1015.1
20260903073258 86 78 3.0 6.0 0.00 0.00 0.00 43 1015.2
20260903072758 85 107 2.0 6.0 0.00 0.00 0.00 46 1015.2
20260903072258 84 102 1.0 4.0 0.00 0.00 0.00 52 1015.2
20260903071758 84 342 2.0 3.0 0.00 0.00 0.00 52 1015.2
20260903071258 83 342 2.0 5.0 0.00 0.00 0.00 51 1015.2
20260903070758 83 337 2.0 7.0 0.00 0.00 0.00 53 1015.2
20260903070258 82 341 2.0 5.0 0.00 0.00 0.00 54 1015.3
20260903065758 82 335 3.0 5.0 0.00 0.00 0.00 55 1015.3
20260903065258 82 333 3.0 6.0 0.00 0.00 0.00 56 1015.3
20260903064758 82 316 3.0 4.0 0.00 0.00 0.00 57 1015.3
20260903064258 81 341 3.0 5.0 0.00 0.00 0.00 56 1015.3
20260903063758 81 336 3.0 6.0 0.00 0.00 0.00 58 1015.2
20260903063258 80 342 3.0 7.0 0.00 0.00 0.00 59 1015.3
20260903062758 79 335 2.0 6.0 0.00 0.00 0.00 64 1015.3
20260903062258 79 355 2.0 4.0 0.00 0.00 0.00 68 1015.3
20260903061758 78 322 1.0 4.0 0.00 0.00 0.00 70 1015.3
20260903061258 78 325 1.0 3.0 0.00 0.00 0.00 72 1015.3
20260903060758 77 323 1.0 2.0 0.00 0.00 0.00 72 1015.2
20260903060258 77 323 2.0 4.0 0.00 0.00 0.00 72 1015.3
20260903055758 76 322 2.0 4.0 0.00 0.00 0.00 72 1015.2
20260903055258 76 325 1.0 4.0 0.00 0.00 0.00 73 1015.2
20260903054758 76 304 2.0 3.0 0.00 0.00 0.00 73 1015.2
20260903054258 75 319 1.0 2.0 0.00 0.00 0.00 73 1015.1
20260903053758 75 319 2.0 3.0 0.00 0.00 0.00 73 1015.2
20260903053258 75 318 1.0 3.0 0.00 0.00 0.00 72 1015.1
20260903052758 74 318 1.0 3.0 0.00 0.00 0.00 72 1015.1
20260903052312 74 319 1.0 2.0 0.00 0.00 0.00 72 1015.1
20260903051758 74 319 1.0 2.0 0.00 0.00 0.00 72 1015.1
20260903051258 74 319 2.0 4.0 0.00 0.00 0.00 71 1015.1
20260903050758 74 333 1.0 4.0 0.00 0.00 0.00 71 1015.1
20260903045758 73 314 0.0 2.0 0.00 0.00 0.00 71 1015.1
20260903045258 73 314 1.0 1.0 0.00 0.00 0.00 72 1015.1
20260903044758 73 314 2.0 3.0 0.00 0.00 0.00 74 1015.1
20260903044258 73 313 2.0 3.0 0.00 0.00 0.00 74 1015.1
20260903043758 73 292 2.0 3.0 0.00 0.00 0.00 74 1015.0
20260903043258 73 292 2.0 3.0 0.00 0.00 0.00 75 1014.9
20260903042758 73 291 2.0 3.0 0.00 0.00 0.00 75 1014.9
20260903042259 73 291 2.0 3.0 0.00 0.00 0.00 76 1014.9
20260903041758 73 290 2.0 3.0 0.00 0.00 0.00 77 1015.0
20260903041258 73 290 3.0 3.0 0.00 0.00 0.00 77 1014.9
20260903040758 73 290 3.0 4.0 0.00 0.00 0.00 78 1014.9
20260903040258 72 294 2.0 4.0 0.00 0.00 0.00 79 1014.8
20260903035758 72 295 2.0 3.0 0.00 0.00 0.00 80 1014.8
20260903035258 72 321 1.0 2.0 0.00 0.00 0.00 81 1014.9
20260903034758 72 322 2.0 4.0 0.00 0.00 0.00 81 1014.8
20260903034258 72 322 2.0 4.0 0.00 0.00 0.00 82 1014.8
20260903033758 71 327 1.0 3.0 0.00 0.00 0.00 82 1014.8
20260903033258 71 331 0.0 1.0 0.00 0.00 0.00 83 1014.9
20260903032758 71 331 1.0 1.0 0.00 0.00 0.00 83 1014.9
20260903032258 72 331 2.0 3.0 0.00 0.00 0.00 83 1014.7
20260903031758 72 331 2.0 3.0 0.00 0.00 0.00 83 1014.8
20260903031258 72 327 2.0 4.0 0.00 0.00 0.00 83 1014.9
20260903030758 73 316 2.0 2.0 0.00 0.00 0.00 84 1014.9
20260903030258 73 315 2.0 3.0 0.00 0.00 0.00 84 1014.9
20260903025758 73 315 1.0 3.0 0.00 0.00 0.00 84 1014.8
20260903025258 73 295 1.0 2.0 0.00 0.00 0.00 85 1014.9
20260903024758 73 295 1.0 3.0 0.00 0.00 0.00 85 1014.9
20260903024258 73 295 2.0 3.0 0.00 0.00 0.00 86 1014.9
20260903023758 73 294 2.0 4.0 0.00 0.00 0.00 88 1014.8
20260903023258 73 295 1.0 4.0 0.00 0.00 0.00 88 1014.9
20260903022758 72 329 0.0 2.0 0.00 0.00 0.00 89 1014.7
20260903022258 72 329 0.0 2.0 0.00 0.00 0.00 87 1014.8
20260903021758 72 329 0.0 2.0 0.00 0.00 0.00 87 1014.8
20260903021258 72 329 1.0 2.0 0.00 0.00 0.00 88 1014.9
20260903020759 72 329 2.0 2.0 0.00 0.00 0.00 87 1014.9
20260903020259 72 329 1.0 3.0 0.00 0.00 0.00 87 1014.9
20260903015759 72 329 1.0 3.0 0.00 0.00 0.00 87 1015.0
20260903015259 72 329 1.0 2.0 0.00 0.00 0.00 87 1015.0
20260903014758 72 329 1.0 2.0 0.00 0.00 0.00 87 1015.0
20260903014259 73 329 1.0 2.0 0.00 0.00 0.00 88 1015.1
20260903013759 72 329 1.0 2.0 0.00 0.00 0.00 88 1015.0
20260903013259 72 329 1.0 2.0 0.00 0.00 0.00 87 1015.0
20260903012759 72 329 1.0 2.0 0.00 0.00 0.00 86 1015.2
20260903012259 72 329 1.0 3.0 0.00 0.00 0.00 86 1015.1
20260903011759 73 346 1.0 2.0 0.00 0.00 0.00 87 1015.3
20260903011259 73 346 1.0 2.0 0.00 0.00 0.00 87 1015.2
20260903010759 73 346 2.0 2.0 0.00 0.00 0.00 87 1015.1
20260903010259 73 346 3.0 4.0 0.00 0.00 0.00 87 1015.1
20260903005759 72 346 3.0 4.0 0.00 0.00 0.00 87 1015.3
20260903005259 72 355 4.0 5.0 0.00 0.00 0.00 86 1015.2
20260903004759 72 12 2.0 5.0 0.00 0.00 0.00 85 1015.2
20260903004259 72 347 0.0 2.0 0.00 0.00 0.00 84 1015.3
20260903003759 73 261 0.0 1.0 0.00 0.00 0.00 84 1015.2
20260903003259 73 261 0.0 0.0 0.00 0.00 0.00 84 1015.2
20260903002759 73 261 2.0 2.0 0.00 0.00 0.00 84 1015.1
20260903002259 74 261 3.0 3.0 0.00 0.00 0.00 84 1015.0
20260903001759 74 279 2.0 4.0 0.00 0.00 0.00 83 1015.1
20260903001259 75 292 1.0 3.0 0.00 0.00 0.00 83 1015.1
20260903000759 75 292 1.0 2.0 0.00 0.00 0.00 84 1015.0
20260903000259 75 292 1.0 2.0 0.00 0.00 0.00 85 1015.0
20260902235759 75 293 1.0 2.0 0.00 0.00 0.00 84 1015.1
20260902235259 75 293 0.0 1.0 0.00 0.00 0.00 84 1015.0
20260902234759 75 293 0.0 0.0 0.00 0.00 0.00 83 1015.1
20260902234259 74 293 1.0 1.0 0.00 0.00 0.00 83 1015.0
20260902233759 74 293 2.0 2.0 0.00 0.00 0.00 82 1015.0
20260902233259 74 293 2.0 2.0 0.00 0.00 0.00 81 1015.0
20260902232759 75 293 2.0 3.0 0.00 0.00 0.00 81 1015.1
20260902232259 75 293 2.0 3.0 0.00 0.00 0.00 81 1015.1
20260902231759 75 293 2.0 3.0 0.00 0.00 0.00 81 1015.1